GW0819 Weather Reports


Display with metric or nautical units.
time (UTC)temp
F
wind
direction
speed
MPH
gust
MPH
rain 1hr
in
rain 24hr
in
rain mn
in
humidity
%
barometer
mb
20221205122312 50 245 9.0 15.0 0.00 0.00 0.00 86 1012.1
20221205121810 50 245 11.0 17.0 0.00 0.00 0.00 87 1012.1
20221205121310 50 235 8.0 18.0 0.00 0.00 0.00 87 1012.2
20221205120810 50 247 14.0 19.0 0.00 0.00 0.00 87 1012.1
20221205120310 50 232 9.0 19.0 0.00 0.00 0.00 87 1012.2
20221205115810 50 250 15.0 19.0 0.00 0.00 0.00 87 1012.1
20221205115309 50 255 10.0 21.0 0.00 0.00 0.00 87 1012.2
20221205114808 50 242 10.0 23.0 0.00 0.00 0.00 87 1012.3
20221205114307 50 243 14.0 22.0 0.00 0.00 0.00 86 1012.4
20221205113806 50 246 12.0 20.0 0.00 0.00 0.00 86 1012.2
20221205113305 50 257 12.0 19.0 0.00 0.00 0.00 86 1012.1
20221205112805 50 247 18.0 23.0 0.00 0.00 0.00 85 1012.3
20221205112305 51 248 18.0 21.0 0.00 0.00 0.00 85 1012.5
20221205111804 51 246 16.0 25.0 0.00 0.00 0.00 84 1012.3
20221205111303 51 240 17.0 19.0 0.00 0.00 0.00 84 1012.3
20221205110802 51 233 17.0 24.0 0.00 0.00 0.00 84 1012.2
20221205110301 51 256 5.0 20.0 0.00 0.00 0.00 83 1012.2
20221205105759 51 239 9.0 23.0 0.00 0.00 0.00 83 1012.2
20221205105259 51 246 14.0 22.0 0.00 0.00 0.00 84 1012.4
20221205104757 50 265 8.0 19.0 0.00 0.00 0.00 84 1012.3
20221205104257 50 259 13.0 20.0 0.00 0.00 0.00 84 1012.3
20221205103755 50 250 13.0 21.0 0.00 0.00 0.00 84 1012.6
20221205103253 50 248 11.0 25.0 0.00 0.00 0.00 83 1012.3
20221205102752 50 238 17.0 23.0 0.00 0.00 0.00 83 1012.3
20221205102251 50 235 10.0 22.0 0.00 0.00 0.00 82 1012.4
20221205101750 50 242 12.0 19.0 0.00 0.00 0.00 83 1012.6
20221205101250 50 248 11.0 22.0 0.00 0.00 0.00 82 1012.5
20221205100748 50 239 18.0 19.0 0.00 0.00 0.00 82 1012.8
20221205100247 51 239 13.0 23.0 0.00 0.00 0.00 82 1012.5
20221205095746 51 233 10.0 21.0 0.00 0.00 0.00 82 1013.0
20221205095246 51 263 11.0 23.0 0.00 0.00 0.00 81 1012.8
20221205094742 51 258 16.0 24.0 0.00 0.00 0.00 81 1012.6
20221205094242 51 236 11.0 23.0 0.00 0.00 0.00 82 1012.8
20221205093738 51 248 11.0 20.0 0.00 0.00 0.00 82 1013.0
20221205093236 50 257 15.0 21.0 0.00 0.00 0.00 82 1013.1
20221205092736 51 247 12.0 22.0 0.00 0.00 0.00 82 1013.1
20221205092235 51 257 13.0 24.0 0.00 0.00 0.00 83 1013.0
20221205091734 51 248 17.0 25.0 0.00 0.00 0.00 83 1013.2
20221205091233 50 257 10.0 25.0 0.00 0.00 0.00 84 1012.8
20221205090733 50 257 12.0 26.0 0.00 0.00 0.00 85 1013.2
20221205090232 50 254 9.0 24.0 0.00 0.00 0.00 85 1013.2
20221205085731 50 248 15.0 25.0 0.00 0.00 0.00 85 1013.3
20221205085229 50 233 19.0 22.0 0.00 0.00 0.00 86 1012.9
20221205084728 50 247 10.0 21.0 0.00 0.00 0.00 86 1013.2
20221205084227 50 252 9.0 17.0 0.00 0.00 0.00 86 1013.3
20221205083725 50 234 13.0 21.0 0.00 0.00 0.00 86 1013.2
20221205083225 50 262 16.0 21.0 0.00 0.00 0.00 86 1013.2
20221205082722 49 250 11.0 19.0 0.00 0.00 0.00 87 1013.3
20221205082222 49 263 9.0 20.0 0.00 0.00 0.00 86 1013.2
20221205081722 49 263 9.0 23.0 0.00 0.00 0.00 86 1013.0
20221205081222 49 253 15.0 20.0 0.00 0.00 0.00 86 1013.2
20221205080721 49 246 13.0 20.0 0.00 0.00 0.00 86 1013.4
20221205080220 50 245 16.0 22.0 0.00 0.00 0.00 86 1013.4
20221205075718 50 242 17.0 27.0 0.00 0.00 0.00 86 1013.4
20221205075216 50 245 15.0 21.0 0.00 0.00 0.00 86 1013.7
20221205074714 50 233 14.0 19.0 0.00 0.00 0.00 87 1013.7
20221205074214 49 257 9.0 18.0 0.00 0.00 0.00 87 1013.3
20221205073712 49 246 11.0 20.0 0.00 0.00 0.00 87 1013.6
20221205073212 49 234 15.0 18.0 0.00 0.00 0.00 88 1013.7
20221205072711 49 235 17.0 21.0 0.00 0.00 0.00 88 1013.8
20221205072210 49 242 22.0 23.0 0.00 0.00 0.00 88 1014.0
20221205071709 49 237 12.0 19.0 0.00 0.00 0.00 88 1013.9
20221205071209 49 248 14.0 21.0 0.00 0.00 0.00 88 1014.0
20221205070708 49 249 10.0 18.0 0.00 0.00 0.00 88 1014.0
20221205070207 49 221 9.0 17.0 0.00 0.00 0.00 89 1014.0
20221205065705 49 261 9.0 15.0 0.00 0.00 0.00 89 1013.9
20221205065203 48 225 11.0 11.0 0.00 0.00 0.00 89 1014.2
20221205064701 48 222 10.0 10.0 0.00 0.00 0.00 89 1014.3
20221205064200 48 242 7.0 10.0 0.00 0.00 0.00 89 1014.5
20221205063658 48 222 3.0 11.0 0.00 0.00 0.00 89 1014.5
20221205063158 48 231 6.0 8.0 0.00 0.00 0.00 88 1014.7
20221205062658 48 241 8.0 9.0 0.00 0.00 0.00 88 1014.8
20221205062157 48 221 7.0 9.0 0.00 0.00 0.00 88 1014.5
20221205061655 48 216 7.0 11.0 0.00 0.00 0.00 88 1014.2
20221205061155 48 226 6.0 12.0 0.00 0.00 0.00 87 1014.5
20221205060655 49 274 7.0 13.0 0.00 0.00 0.00 87 1014.7
20221205060153 48 229 6.0 13.0 0.00 0.00 0.00 87 1014.6
20221205055651 48 231 11.0 14.0 0.00 0.00 0.00 87 1014.7
20221205055150 48 240 7.0 12.0 0.00 0.00 0.00 87 1014.5
20221205054648 48 267 6.0 13.0 0.00 0.00 0.00 87 1014.5
20221205054147 49 252 6.0 14.0 0.00 0.00 0.00 87 1014.6
20221205053645 49 258 9.0 12.0 0.00 0.00 0.00 86 1015.0
20221205053143 49 243 8.0 11.0 0.00 0.00 0.00 86 1014.8
20221205052643 49 252 6.0 11.0 0.00 0.00 0.00 86 1015.3
20221205052141 49 235 10.0 13.0 0.00 0.00 0.00 85 1015.3
20221205051639 49 275 9.0 14.0 0.00 0.00 0.00 86 1015.1
20221205051139 49 243 9.0 14.0 0.00 0.00 0.00 86 1015.5
20221205050639 49 238 10.0 14.0 0.00 0.00 0.00 86 1015.4
20221205050137 49 240 11.0 13.0 0.00 0.00 0.00 86 1015.4
20221205045636 50 222 10.0 16.0 0.00 0.00 0.00 85 1015.4
20221205045136 50 243 11.0 14.0 0.00 0.00 0.00 86 1015.5
20221205044636 50 265 9.0 13.0 0.00 0.00 0.00 85 1015.6
20221205044134 50 241 11.0 16.0 0.00 0.00 0.00 85 1015.8
20221205043633 51 256 8.0 13.0 0.00 0.00 0.00 85 1016.0
20221205043133 50 248 5.0 13.0 0.00 0.00 0.00 85 1015.5
20221205042630 51 254 9.0 17.0 0.00 0.00 0.00 85 1015.9
20221205042128 51 287 8.0 14.0 0.00 0.00 0.00 85 1016.3
20221205041626 51 231 8.0 12.0 0.00 0.00 0.00 85 1016.4
20221205041124 51 246 11.0 15.0 0.00 0.00 0.00 85 1015.9
20221205040623 51 251 5.0 11.0 0.00 0.00 0.00 85 1016.0
20221205040121 51 260 8.0 14.0 0.00 0.00 0.00 84 1016.3
20221205035621 51 258 10.0 15.0 0.00 0.00 0.00 85 1016.3
20221205035119 51 249 10.0 12.0 0.00 0.00 0.00 85 1016.2
20221205034617 50 244 8.0 13.0 0.00 0.00 0.00 86 1016.0
20221205034116 50 248 7.0 12.0 0.00 0.00 0.00 86 1015.9
20221205033616 50 251 8.0 13.0 0.00 0.00 0.00 85 1016.4
20221205033115 50 236 9.0 14.0 0.00 0.00 0.00 85 1015.9
20221205032613 50 250 13.0 13.0 0.00 0.00 0.00 86 1016.0
20221205032112 50 257 7.0 11.0 0.00 0.00 0.00 86 1016.3
20221205031609 50 257 4.0 11.0 0.00 0.00 0.00 85 1016.2
20221205031109 50 251 6.0 10.0 0.00 0.00 0.00 85 1016.2
20221205030608 50 301 3.0 10.0 0.00 0.00 0.00 85 1016.3
20221205030107 50 278 7.0 10.0 0.00 0.00 0.00 86 1016.2
20221205025606 50 270 4.0 17.0 0.00 0.00 0.00 85 1016.3
20221205025106 50 275 12.0 14.0 0.00 0.00 0.00 86 1016.2
20221205024605 50 225 7.0 13.0 0.00 0.00 0.00 86 1016.0
20221205024104 50 255 5.0 9.0 0.00 0.00 0.00 86 1016.3
20221205023602 50 270 3.0 11.0 0.00 0.00 0.00 86 1016.0
20221205023100 50 240 9.0 14.0 0.00 0.00 0.00 86 1016.0
20221205022559 50 232 10.0 14.0 0.00 0.00 0.00 85 1016.2
20221205022059 50 236 8.0 14.0 0.00 0.00 0.00 85 1016.4
20221205021559 50 258 7.0 15.0 0.00 0.00 0.00 85 1016.4
20221205021058 50 246 7.0 13.0 0.00 0.00 0.00 84 1016.4
20221205020557 50 243 8.0 12.0 0.00 0.00 0.00 84 1016.3
20221205020056 50 254 8.0 12.0 0.00 0.00 0.00 84 1016.5
20221205015554 50 243 12.0 16.0 0.00 0.00 0.00 83 1016.6
20221205015054 50 250 7.0 15.0 0.00 0.00 0.00 83 1016.5
20221205014552 50 243 10.0 15.0 0.00 0.00 0.00 83 1016.7
20221205014050 51 240 9.0 17.0 0.00 0.00 0.00 83 1016.5
20221205013548 50 232 6.0 11.0 0.00 0.00 0.00 84 1017.1
20221205013047 50 250 11.0 14.0 0.00 0.00 0.00 84 1016.7
20221205012546 50 247 4.0 6.0 0.00 0.00 0.00 84 1016.7
20221205012046 50 240 4.0 9.0 0.00 0.00 0.00 84 1016.7
20221205011544 50 247 6.0 7.0 0.00 0.00 0.00 84 1016.5
20221205011043 50 240 5.0 7.0 0.00 0.00 0.00 83 1016.7
20221205010542 50 220 3.0 8.0 0.00 0.00 0.00 83 1016.4
20221205010041 51 248 4.0 7.0 0.00 0.00 0.00 82 1016.5
20221205005541 51 256 3.0 9.0 0.00 0.00 0.00 81 1016.7
20221205005038 51 245 6.0 11.0 0.00 0.00 0.00 81 1016.7
20221205004536 52 248 7.0 10.0 0.00 0.00 0.00 80 1016.6
20221205004036 51 231 6.0 8.0 0.00 0.00 0.00 81 1016.5
20221205003535 52 228 6.0 7.0 0.00 0.00 0.00 80 1016.7
20221205003034 52 239 4.0 8.0 0.00 0.00 0.00 79 1016.5
20221205002532 53 239 5.0 9.0 0.00 0.00 0.00 78 1016.6
20221205002031 53 234 8.0 11.0 0.00 0.00 0.00 78 1016.6
20221205001531 53 230 9.0 13.0 0.00 0.00 0.00 77 1016.8
20221205001029 53 247 7.0 15.0 0.00 0.00 0.00 77 1017.0
20221205000527 53 241 13.0 17.0 0.00 0.00 0.00 77 1017.0
20221205000026 54 242 7.0 13.0 0.00 0.00 0.00 78 1017.1
20221204235526 54 243 6.0 13.0 0.00 0.00 0.00 78 1017.1
20221204235025 54 221 8.0 13.0 0.00 0.00 0.00 79 1016.7
20221204234523 54 227 5.0 11.0 0.00 0.00 0.00 79 1017.0
20221204234023 55 246 5.0 11.0 0.00 0.00 0.00 78 1017.4
20221204233524 55 239 7.0 9.0 0.00 0.00 0.00 78 1017.1
20221204233022 56 255 9.0 13.0 0.00 0.00 0.00 77 1017.0
20221204232519 57 228 6.0 15.0 0.00 0.00 0.00 75 1016.7
20221204232019 57 224 8.0 13.0 0.00 0.00 0.00 74 1017.1
20221204231517 57 243 7.0 13.0 0.00 0.00 0.00 73 1017.1
20221204231015 57 231 6.0 14.0 0.00 0.00 0.00 72 1017.0
20221204230513 57 255 10.0 12.0 0.00 0.00 0.00 73 1017.2
20221204230012 57 262 8.0 15.0 0.00 0.00 0.00 73 1017.3
20221204225511 58 243 12.0 17.0 0.00 0.00 0.00 73 1017.2
20221204225009 58 245 14.0 14.0 0.00 0.00 0.00 72 1017.1
20221204224507 58 238 10.0 12.0 0.00 0.00 0.00 72 1017.4
20221204224003 58 229 10.0 11.0 0.00 0.00 0.00 72 1017.3
20221204223501 58 295 4.0 14.0 0.00 0.00 0.00 71 1017.2
20221204222957 58 258 9.0 10.0 0.00 0.00 0.00 71 1017.4
20221204222457 58 277 6.0 10.0 0.00 0.00 0.00 72 1017.3
20221204221955 58 263 6.0 14.0 0.00 0.00 0.00 71 1017.5
20221204221453 59 267 11.0 15.0 0.00 0.00 0.00 70 1017.3
20221204220949 59 306 4.0 16.0 0.00 0.00 0.00 70 1017.4
20221204220449 59 279 8.0 13.0 0.00 0.00 0.00 69 1017.5
20221204215947 60 294 10.0 15.0 0.00 0.00 0.00 69 1017.5
20221204215446 59 290 5.0 15.0 0.00 0.00 0.00 70 1017.4
20221204214945 58 289 7.0 14.0 0.00 0.00 0.00 71 1017.9
20221204214445 58 254 14.0 15.0 0.00 0.00 0.00 71 1017.6
20221204213944 58 311 6.0 10.0 0.00 0.00 0.00 71 1017.7
20221204213443 57 265 6.0 11.0 0.00 0.00 0.00 72 1017.5
20221204212943 57 274 9.0 10.0 0.00 0.00 0.00 72 1017.6
20221204212441 57 320 3.0 14.0 0.00 0.00 0.00 73 1017.7
20221204211940 57 261 11.0 14.0 0.00 0.00 0.00 73 1017.9
20221204211440 57 292 10.0 14.0 0.00 0.00 0.00 73 1017.6
20221204210939 56 296 5.0 19.0 0.00 0.00 0.00 73 1018.0
20221204210439 57 250 13.0 21.0 0.00 0.00 0.00 72 1018.0
20221204205938 57 247 9.0 15.0 0.00 0.00 0.00 72 1018.1
20221204205438 57 254 5.0 15.0 0.00 0.00 0.00 72 1018.0
20221204204938 57 247 5.0 14.0 0.00 0.00 0.00 72 1018.1
20221204204436 57 254 17.0 20.0 0.00 0.00 0.00 71 1018.1
20221204203934 57 250 14.0 17.0 0.00 0.00 0.00 71 1018.2
20221204203434 58 267 6.0 16.0 0.00 0.00 0.00 70 1018.1
20221204202933 58 309 12.0 12.0 0.00 0.00 0.00 70 1018.3
20221204202431 58 293 6.0 19.0 0.00 0.00 0.00 69 1018.4
20221204201931 59 253 4.0 18.0 0.00 0.00 0.00 69 1018.5
20221204201431 59 272 9.0 18.0 0.00 0.00 0.00 68 1018.3
20221204200930 59 272 14.0 19.0 0.00 0.00 0.00 69 1018.5
20221204200429 58 288 11.0 19.0 0.00 0.00 0.00 70 1018.4
20221204195927 58 287 17.0 20.0 0.00 0.00 0.00 70 1018.5
20221204195426 58 300 3.0 19.0 0.00 0.00 0.00 69 1018.5
20221204194926 58 247 12.0 17.0 0.00 0.00 0.00 70 1018.5
20221204194425 57 253 9.0 18.0 0.00 0.00 0.00 70 1018.7
20221204193923 57 282 9.0 16.0 0.00 0.00 0.00 71 1018.9
20221204193423 57 277 7.0 19.0 0.00 0.00 0.00 71 1018.9
20221204192923 56 324 5.0 18.0 0.00 0.00 0.00 74 1019.0
20221204192421 55 249 20.0 20.0 0.00 0.00 0.00 75 1019.3
20221204191921 54 257 7.0 21.0 0.00 0.00 0.00 78 1019.4
20221204191419 53 278 12.0 22.0 0.00 0.00 0.00 76 1019.6
20221204190918 53 278 9.0 20.0 0.00 0.00 0.00 76 1019.9
20221204190418 53 295 10.0 16.0 0.00 0.00 0.00 77 1020.0
20221204185917 52 253 5.0 20.0 0.00 0.00 0.00 77 1019.9
20221204185416 52 268 9.0 22.0 0.00 0.00 0.00 77 1020.2
20221204184915 52 277 8.0 22.0 0.00 0.00 0.00 76 1020.4
20221204184414 52 254 14.0 19.0 0.00 0.00 0.00 76 1020.7
20221204183912 52 246 9.0 16.0 0.00 0.00 0.00 75 1020.6
20221204183411 51 259 8.0 17.0 0.00 0.00 0.00 77 1020.9
20221204182911 51 258 11.0 18.0 0.00 0.00 0.00 77 1020.9
20221204182409 50 252 14.0 21.0 0.00 0.00 0.00 77 1020.8
20221204181908 49 241 9.0 20.0 0.00 0.00 0.00 77 1021.4
20221204181408 49 254 11.0 18.0 0.00 0.00 0.00 78 1021.5
20221204180908 49 235 17.0 19.0 0.00 0.00 0.00 77 1021.7
20221204180407 49 254 15.0 22.0 0.00 0.00 0.00 78 1021.5
20221204175907 48 226 7.0 17.0 0.00 0.00 0.00 78 1021.8
20221204175407 48 243 12.0 16.0 0.00 0.00 0.00 78 1021.8
20221204174906 47 263 7.0 16.0 0.00 0.00 0.00 78 1021.9
20221204174406 47 292 5.0 15.0 0.00 0.00 0.00 78 1022.1
20221204173906 48 304 10.0 19.0 0.00 0.00 0.00 77 1022.2
20221204173404 48 251 11.0 15.0 0.00 0.00 0.00 77 1022.3
20221204172902 48 245 10.0 16.0 0.00 0.00 0.00 78 1022.4
20221204172400 47 284 11.0 13.0 0.00 0.00 0.00 78 1022.5
20221204171900 47 272 9.0 16.0 0.00 0.00 0.00 78 1022.8
20221204171359 47 249 8.0 15.0 0.00 0.00 0.00 78 1022.6
20221204170858 47 273 9.0 13.0 0.00 0.00 0.00 80 1022.5
20221204170358 47 270 4.0 12.0 0.00 0.00 0.00 80 1022.2
20221204165857 46 252 12.0 14.0 0.00 0.00 0.00 80 1022.6
20221204165356 46 253 9.0 13.0 0.00 0.00 0.00 78 1022.8
20221204164855 46 252 10.0 14.0 0.00 0.00 0.00 78 1022.8
20221204164357 46 237 9.0 13.0 0.00 0.00 0.00 78 1023.0
20221204163851 46 253 17.0 22.0 0.00 0.00 0.00 77 1023.0
20221204163351 46 277 8.0 17.0 0.00 0.00 0.00 78 1023.1
20221204162851 46 252 10.0 14.0 0.00 0.00 0.00 78 1022.7
20221204162349 46 232 8.0 17.0 0.00 0.00 0.00 77 1022.8
20221204161849 46 236 15.0 15.0 0.00 0.00 0.00 78 1022.7
20221204161348 45 267 3.0 19.0 0.00 0.00 0.00 79 1023.3
20221204160847 45 230 8.0 14.0 0.00 0.00 0.00 80 1023.0
20221204160346 45 219 8.0 15.0 0.00 0.00 0.00 80 1022.7
20221204155844 45 241 9.0 15.0 0.00 0.00 0.00 81 1022.8
20221204155343 45 241 7.0 18.0 0.00 0.00 0.00 80 1023.1
20221204154841 45 258 7.0 17.0 0.00 0.00 0.00 80 1023.3
20221204154340 45 282 5.0 13.0 0.00 0.00 0.00 80 1023.0
20221204153840 44 251 6.0 12.0 0.00 0.00 0.00 81 1022.8
20221204153338 44 249 13.0 18.0 0.00 0.00 0.00 80 1023.1
20221204152838 44 256 8.0 18.0 0.00 0.00 0.00 80 1023.0
20221204152337 43 233 10.0 16.0 0.00 0.00 0.00 81 1023.0
20221204151836 43 248 16.0 19.0 0.00 0.00 0.00 81 1022.7
20221204151335 42 261 13.0 18.0 0.00 0.00 0.00 81 1023.1
20221204150834 42 246 9.0 17.0 0.00 0.00 0.00 82 1023.0
20221204150333 42 254 9.0 16.0 0.00 0.00 0.00 82 1023.0
20221204145832 41 249 18.0 19.0 0.00 0.00 0.00 82 1023.1
20221204145331 41 250 11.0 16.0 0.00 0.00 0.00 81 1022.8
20221204144829 41 257 7.0 16.0 0.00 0.00 0.00 81 1023.0
20221204144329 41 272 5.0 15.0 0.00 0.00 0.00 81 1023.1
20221204143827 41 284 8.0 11.0 0.00 0.00 0.00 80 1022.6
20221204143327 41 289 6.0 14.0 0.00 0.00 0.00 80 1022.4
20221204142827 41 249 8.0 17.0 0.00 0.00 0.00 80 1022.6
20221204142325 41 240 11.0 16.0 0.00 0.00 0.00 80 1022.7
20221204141825 41 261 6.0 15.0 0.00 0.00 0.00 80 1022.7
20221204141324 41 236 13.0 19.0 0.00 0.00 0.00 79 1022.4
20221204140823 41 245 7.0 17.0 0.00 0.00 0.00 79 1022.5
20221204140323 41 252 14.0 19.0 0.00 0.00 0.00 79 1022.3
20221204135821 41 232 11.0 20.0 0.00 0.00 0.00 79 1022.2
20221204135319 40 272 7.0 14.0 0.00 0.00 0.00 79 1021.9
20221204134817 40 239 10.0 17.0 0.00 0.00 0.00 79 1022.5
20221204134317 40 242 12.0 17.0 0.00 0.00 0.00 79 1022.5
20221204133815 40 262 9.0 21.0 0.00 0.00 0.00 80 1022.5
20221204133315 40 235 13.0 19.0 0.00 0.00 0.00 80 1022.7
20221204132811 40 238 6.0 14.0 0.00 0.00 0.00 81 1022.8
20221204132310 40 239 3.0 16.0 0.00 0.00 0.00 80 1022.8
20221204131810 40 245 2.0 13.0 0.00 0.00 0.00 80 1022.6
20221204131308 40 253 7.0 11.0 0.00 0.00 0.00 81 1022.8
20221204130808 40 258 9.0 9.0 0.00 0.00 0.00 81 1022.7
20221204130307 40 270 6.0 12.0 0.00 0.00 0.00 81 1022.6
20221204125805 40 319 6.0 11.0 0.00 0.00 0.00 81 1022.5
20221204125305 40 254 6.0 9.0 0.00 0.00 0.00 82 1022.8
20221204124804 40 248 6.0 14.0 0.00 0.00 0.00 81 1022.7
20221204124303 40 252 12.0 16.0 0.00 0.00 0.00 82 1022.5
20221204123801 40 248 10.0 17.0 0.00 0.00 0.00 83 1022.8
20221204123300 40 248 5.0 15.0 0.00 0.00 0.00 84 1022.6
20221204122800 39 293 9.0 15.0 0.00 0.00 0.00 84 1022.7